2022/07/26 23:28:23+0000,-39.47,-24.49,-28.43,-38.51,-43.54,-40.93
2022/07/26 23:29:15+0000,-39.80,-24.83,-29.04,-36.90,-42.18,-42.41
2022/07/26 23:30:08+0000,-39.85,-25.04,-27.43,-37.84,-42.36,-40.87
2022/07/26 23:31:09+0000,-39.78,-23.82,-28.07,-35.91,-43.26,-42.03
2022/07/26 23:32:01+0000,-40.10,-24.76,-27.50,-40.13,-43.07,-40.84
2022/07/26 23:32:53+0000,-39.77,-24.49,-27.41,-38.93,-41.81,-41.48
2022/07/26 23:33:45+0000,-39.42,-24.81,-28.44,-34.41,-41.58,-41.80
2022/07/26 23:34:37+0000,-39.33,-25.67,-26.26,-33.42,-41.99,-41.97
2022/07/26 23:35:29+0000,-40.00,-24.97,-27.37,-37.56,-43.84,-41.17
2022/07/26 23:36:21+0000,-39.33,-24.97,-28.82,-36.53,-42.70,-43.03
2022/07/26 23:37:13+0000,-39.60,-24.93,-28.96,-35.72,-42.18,-43.11
2022/07/26 23:38:05+0000,-39.42,-24.67,-26.79,-35.31,-41.91,-40.58
2022/07/26 23:38:57+0000,-39.73,-25.12,-29.49,-39.49,-42.09,-43.15
2022/07/26 23:39:50+0000,-40.88,-24.88,-27.86,-40.67,-41.38,-43.70
2022/07/26 23:40:42+0000,-40.34,-24.96,-29.65,-34.34,-42.49,-43.86
2022/07/26 23:41:42+0000,-39.85,-25.26,-29.46,-35.34,-41.04,-41.33
2022/07/26 23:42:34+0000,-38.99,-25.10,-30.27,-34.51,-41.42,-41.71
2022/07/26 23:43:26+0000,-39.59,-24.68,-29.13,-39.79,-43.03,-43.56
2022/07/26 23:44:18+0000,-39.71,-25.10,-27.87,-42.97,-41.94,-40.86
2022/07/26 23:45:10+0000,-40.07,-26.29,-30.01,-35.45,-43.37,-42.08
2022/07/26 23:46:02+0000,-39.55,-24.56,-29.01,-44.00,-43.40,-41.93
2022/07/26 23:46:54+0000,-39.72,-24.61,-27.56,-36.02,-43.77,-42.70
2022/07/26 23:47:46+0000,-39.73,-24.80,-29.00,-35.57,-41.68,-42.66
2022/07/26 23:48:38+0000,-40.17,-24.58,-28.06,-32.51,-42.75,-44.07
2022/07/26 23:49:31+0000,-39.75,-24.61,-28.94,-34.31,-42.01,-43.18
2022/07/26 23:50:23+0000,-39.39,-25.06,-27.97,-36.69,-42.38,-43.20
2022/07/26 23:51:23+0000,-39.80,-25.56,-29.13,-36.65,-42.02,-41.82
2022/07/26 23:52:15+0000,-39.78,-25.29,-29.14,-31.90,-41.10,-43.29
2022/07/26 23:53:07+0000,-39.85,-24.43,-28.32,-32.30,-43.92,-43.50
2022/07/26 23:53:59+0000,-40.28,-25.28,-28.86,-37.94,-43.29,-42.06
2022/07/26 23:54:51+0000,-39.14,-24.39,-29.10,-40.12,-43.57,-42.90
2022/07/26 23:55:43+0000,-39.73,-25.12,-28.49,-32.11,-43.28,-42.12
2022/07/26 23:56:36+0000,-39.97,-24.88,-30.25,-34.98,-43.84,-42.32
2022/07/26 23:57:28+0000,-39.54,-25.07,-29.95,-39.60,-44.09,-43.58
2022/07/26 23:58:20+0000,-39.57,-25.09,-26.23,-39.14,-40.95,-43.85
2022/07/26 23:59:12+0000,-39.45,-25.63,-29.72,-32.93,-41.27,-42.33
2022/07/27 00:00:04+0000,-39.15,-24.92,-29.67,-39.10,-44.45,-42.91
2022/07/27 00:01:08+0000,-39.46,-25.54,-29.75,-32.42,-42.97,-42.37
2022/07/27 00:02:00+0000,-39.30,-24.74,-29.30,-37.67,-43.70,-43.42
2022/07/27 00:02:52+0000,-40.10,-24.81,-26.12,-37.34,-43.77,-43.80
2022/07/27 00:03:44+0000,-39.88,-24.54,-25.41,-34.58,-41.45,-42.11
2022/07/27 00:04:36+0000,-40.15,-24.95,-28.26,-36.16,-42.93,-41.58
2022/07/27 00:05:28+0000,-39.07,-25.44,-28.88,-38.88,-44.27,-44.74
2022/07/27 00:06:21+0000,-39.53,-25.39,-24.81,-38.79,-42.20,-41.20
2022/07/27 00:07:13+0000,-40.11,-24.54,-30.08,-36.44,-43.64,-42.65
2022/07/27 00:08:05+0000,-40.13,-24.71,-29.65,-36.33,-43.97,-44.42
2022/07/27 00:08:57+0000,-39.47,-25.47,-29.59,-37.89,-42.81,-41.37
2022/07/27 00:09:49+0000,-39.87,-25.15,-24.79,-42.17,-43.88,-43.59
2022/07/27 00:10:41+0000,-39.26,-24.38,-30.51,-32.59,-42.87,-45.01
2022/07/27 00:11:42+0000,-39.38,-24.53,-29.42,-37.41,-43.12,-36.36
2022/07/27 00:12:34+0000,-39.83,-25.16,-28.05,-40.94,-44.04,-37.16
2022/07/27 00:13:26+0000,-40.14,-25.21,-29.00,-37.24,-43.86,-37.10
2022/07/27 00:14:18+0000,-40.65,-25.24,-26.67,-44.73,-43.07,-37.33
2022/07/27 00:15:10+0000,-39.70,-25.19,-29.29,-37.44,-44.92,-36.60
2022/07/27 00:16:02+0000,-39.40,-24.82,-29.84,-43.46,-44.13,-38.40
2022/07/27 00:16:54+0000,-40.32,-25.14,-26.39,-37.91,-43.57,-37.71
2022/07/27 00:17:46+0000,-39.42,-24.44,-25.14,-32.33,-43.04,-37.13
2022/07/27 00:18:38+0000,-40.15,-24.88,-29.64,-36.32,-44.99,-37.50
2022/07/27 00:19:30+0000,-38.95,-24.66,-29.91,-36.08,-43.40,-38.10
2022/07/27 00:20:23+0000,-40.49,-25.82,-29.80,-37.59,-41.14,-36.65
2022/07/27 00:21:23+0000,-40.28,-24.54,-29.38,-35.93,-43.84,-37.26
2022/07/27 00:22:15+0000,-39.34,-26.06,-29.56,-35.38,-42.88,-37.22
2022/07/27 00:23:07+0000,-39.75,-25.03,-29.19,-33.45,-44.02,-37.56
2022/07/27 00:23:59+0000,-40.01,-24.80,-28.13,-37.91,-43.33,-36.88
2022/07/27 00:24:51+0000,-39.72,-24.84,-29.18,-38.50,-42.99,-37.09
2022/07/27 00:25:44+0000,-39.64,-22.93,-29.14,-35.28,-43.69,-36.43
2022/07/27 00:26:36+0000,-39.74,-25.09,-29.48,-33.39,-42.08,-38.44
2022/07/27 00:27:28+0000,-38.81,-25.24,-29.89,-38.39,-41.90,-37.96
2022/07/27 00:28:20+0000,-40.86,-24.86,-14.55,-39.11,-42.36,-38.02
2022/07/27 00:29:12+0000,-40.19,-24.23,-27.50,-36.71,-42.60,-37.35
2022/07/27 00:30:04+0000,-40.55,-24.69,-27.59,-41.60,-42.23,-38.55
2022/07/27 00:31:05+0000,-39.44,-26.07,-27.56,-36.76,-40.54,-37.61
2022/07/27 00:31:57+0000,-39.28,-25.16,-29.22,-39.93,-40.60,-37.83
2022/07/27 00:32:49+0000,-40.04,-22.60,-28.10,-44.19,-42.59,-38.17
2022/07/27 00:33:41+0000,-39.33,-23.32,-29.45,-36.25,-42.95,-37.76
2022/07/27 00:34:33+0000,-40.11,-23.55,-27.75,-44.21,-42.68,-37.56
2022/07/27 00:35:25+0000,-39.95,-24.88,-28.30,-38.20,-42.90,-38.79
2022/07/27 00:36:17+0000,-39.33,-25.36,-29.31,-40.54,-42.00,-37.35
2022/07/27 00:37:09+0000,-40.50,-25.40,-28.95,-34.55,-44.04,-39.37
2022/07/27 00:38:01+0000,-40.11,-23.87,-28.82,-37.25,-41.27,-39.25
2022/07/27 00:38:53+0000,-40.23,-24.21,-28.98,-36.88,-43.74,-39.63
2022/07/27 00:39:46+0000,-39.71,-24.99,-27.71,-37.26,-43.06,-40.13
2022/07/27 00:40:38+0000,-39.72,-25.34,-28.19,-35.75,-41.34,-38.51
2022/07/27 00:41:38+0000,-40.76,-25.17,-28.45,-33.60,-40.69,-40.16
2022/07/27 00:42:30+0000,-39.83,-25.90,-27.47,-38.13,-42.67,-39.05
2022/07/27 00:43:22+0000,-40.67,-25.20,-27.85,-34.87,-42.72,-39.36
2022/07/27 00:44:14+0000,-39.45,-23.84,-28.86,-33.49,-42.51,-39.46
2022/07/27 00:45:06+0000,-40.09,-24.86,-27.60,-33.36,-41.30,-40.14
2022/07/27 00:45:58+0000,-40.02,-24.31,-27.75,-36.84,-40.94,-39.61
2022/07/27 00:46:50+0000,-39.60,-25.70,-27.44,-35.20,-42.96,-39.13
2022/07/27 00:47:42+0000,-40.19,-25.71,-28.70,-36.99,-42.74,-37.47
2022/07/27 00:48:34+0000,-39.60,-24.79,-26.56,-38.18,-42.11,-37.95
2022/07/27 00:49:26+0000,-40.27,-24.71,-28.02,-38.07,-40.41,-35.83
2022/07/27 00:50:19+0000,-39.94,-25.85,-26.45,-42.27,-42.03,-37.23
2022/07/27 00:51:19+0000,-40.23,-24.67,-26.88,-38.41,-43.07,-38.20
2022/07/27 00:52:12+0000,-40.28,-25.30,-27.96,-37.72,-42.12,-38.62
2022/07/27 00:53:04+0000,-39.10,-25.15,-27.93,-44.09,-40.16,-37.70
2022/07/27 00:53:56+0000,-40.01,-25.20,-27.38,-38.11,-39.75,-38.12
2022/07/27 00:54:48+0000,-39.35,-24.85,-26.97,-43.80,-42.11,-37.16
2022/07/27 00:55:40+0000,-40.09,-24.50,-26.77,-38.68,-44.28,-37.73
2022/07/27 00:56:32+0000,-40.01,-25.50,-26.78,-38.61,-39.10,-38.79
2022/07/27 00:57:24+0000,-40.16,-24.68,-27.98,-34.89,-43.56,-37.94
2022/07/27 00:58:16+0000,-39.42,-23.39,-26.58,-34.45,-38.60,-38.13
2022/07/27 00:59:08+0000,-40.03,-25.07,-26.85,-34.97,-43.47,-38.71
2022/07/27 01:00:00+0000,-39.95,-25.75,-28.52,-35.82,-40.19,-39.63
2022/07/27 01:01:01+0000,-40.19,-25.37,-26.91,-34.67,-40.69,-37.69
2022/07/27 01:01:53+0000,-40.10,-25.08,-25.77,-33.34,-43.08,-39.47
2022/07/27 01:02:45+0000,-39.47,-23.81,-25.58,-36.75,-42.76,-38.87
2022/07/27 01:03:37+0000,-39.51,-25.54,-27.79,-35.21,-40.46,-39.40
2022/07/27 01:04:29+0000,-39.81,-25.47,-27.72,-31.94,-39.23,-38.80
2022/07/27 01:05:21+0000,-40.34,-24.63,-27.98,-34.03,-42.70,-38.55
2022/07/27 01:06:14+0000,-39.24,-23.72,-27.36,-36.74,-42.87,-39.23
2022/07/27 01:07:06+0000,-38.84,-23.72,-26.98,-34.48,-41.44,-39.26
2022/07/27 01:07:58+0000,-39.68,-24.31,-28.23,-35.53,-40.31,-39.47
2022/07/27 01:08:50+0000,-39.79,-25.73,-27.42,-35.11,-39.90,-39.80
2022/07/27 01:09:42+0000,-39.85,-22.25,-27.72,-35.60,-40.28,-39.11
2022/07/27 01:10:34+0000,-40.43,-23.77,-27.08,-37.03,-40.93,-40.14
2022/07/27 01:11:35+0000,-39.83,-23.99,-27.11,-32.07,-40.29,-38.96
2022/07/27 01:12:27+0000,-39.89,-22.16,-28.29,-35.92,-41.24,-39.30
2022/07/27 01:13:19+0000,-39.79,-24.26,-27.20,-40.77,-42.41,-40.49
2022/07/27 01:14:11+0000,-38.74,-25.05,-28.07,-33.62,-42.61,-38.80
2022/07/27 01:15:03+0000,-40.30,-23.68,-26.94,-43.23,-41.25,-39.77
2022/07/27 01:15:55+0000,-39.78,-24.45,-26.72,-35.41,-43.35,-40.41
2022/07/27 01:16:47+0000,-39.42,-25.25,-27.46,-42.68,-42.89,-40.34
2022/07/27 01:17:39+0000,-40.00,-25.00,-26.12,-36.59,-44.25,-39.39
2022/07/27 01:18:31+0000,-38.46,-23.69,-26.98,-31.49,-41.58,-39.45
2022/07/27 01:19:23+0000,-39.73,-24.83,-25.95,-29.63,-44.04,-39.92
2022/07/27 01:20:16+0000,-39.71,-24.34,-26.95,-32.47,-42.61,-40.09
2022/07/27 01:21:16+0000,-40.06,-24.26,-26.43,-32.31,-43.32,-40.13
2022/07/27 01:22:08+0000,-39.50,-24.61,-27.81,-32.43,-41.35,-40.51
2022/07/27 01:23:00+0000,-27.53,-19.24,-16.40,-32.05,-23.48,-38.04
2022/07/27 01:23:52+0000,-27.40,-17.69,-16.27,-32.18,-24.98,-40.03
2022/07/27 01:24:44+0000,-28.15,-18.46,-17.15,-27.37,-25.33,-39.07
2022/07/27 01:25:36+0000,-28.93,-19.94,-16.19,-29.80,-25.83,-39.58
2022/07/27 01:26:28+0000,-29.58,-18.07,-16.17,-31.23,-26.34,-39.07
2022/07/27 01:27:20+0000,-28.26,-18.02,-16.19,-27.76,-26.26,-39.85
2022/07/27 01:28:12+0000,-27.80,-19.12,-15.73,-32.09,-26.68,-38.86
2022/07/27 01:29:04+0000,-28.29,-24.00,-28.14,-34.72,-42.43,-42.32
2022/07/27 01:29:57+0000,-38.94,-24.39,-28.05,-33.99,-41.46,-42.27
2022/07/27 01:30:49+0000,-40.34,-24.80,-26.21,-38.24,-40.85,-41.98
2022/07/27 01:31:49+0000,-39.33,-23.20,-26.62,-34.20,-43.44,-41.83
2022/07/27 01:32:42+0000,-39.55,-24.72,-27.94,-34.54,-42.13,-41.46
2022/07/27 01:33:34+0000,-38.87,-23.60,-26.22,-43.18,-42.99,-42.15
2022/07/27 01:34:26+0000,-39.52,-23.69,-28.08,-33.69,-40.85,-41.57
2022/07/27 01:35:18+0000,-39.30,-5.53,-26.15,-43.35,-42.36,-40.37
2022/07/27 01:36:10+0000,-39.68,-23.93,-26.91,-36.90,-44.11,-41.22
2022/07/27 01:37:02+0000,-38.90,-24.73,-26.21,-41.22,-40.89,-39.72
2022/07/27 01:37:54+0000,-39.49,-23.76,-26.33,-36.22,-43.50,-41.82
2022/07/27 01:38:46+0000,-39.45,-23.43,-27.22,-32.92,-42.66,-40.63
2022/07/27 01:39:38+0000,-39.43,-23.53,-26.77,-32.64,-44.29,-40.57
2022/07/27 01:40:30+0000,-39.09,-23.57,-26.05,-34.25,-42.74,-41.47
2022/07/27 01:41:34+0000,-39.56,-23.66,-26.29,-41.97,-42.98,-40.67
2022/07/27 01:42:26+0000,-39.71,-24.69,-28.09,-37.59,-43.18,-38.97
2022/07/27 01:43:18+0000,-39.52,-23.46,-23.79,-43.06,-42.21,-36.56
2022/07/27 01:44:10+0000,-39.35,-24.75,-25.00,-34.53,-44.43,-40.61
2022/07/27 01:45:02+0000,-39.84,-25.20,-24.99,-43.28,-42.34,-41.17
2022/07/27 01:45:54+0000,-39.53,-24.34,-25.04,-36.40,-44.60,-37.96
2022/07/27 01:46:46+0000,-39.51,-23.75,-24.81,-31.38,-43.73,-40.59
2022/07/27 01:47:38+0000,-39.88,-24.23,-26.66,-29.69,-44.91,-41.73
2022/07/27 01:48:30+0000,-39.60,-23.96,-23.92,-34.91,-42.16,-40.08
2022/07/27 01:49:22+0000,-38.95,-22.83,-24.05,-32.79,-44.11,-40.93
2022/07/27 01:50:15+0000,-39.77,-24.14,-24.93,-35.01,-42.24,-39.43
2022/07/27 01:51:15+0000,-38.84,-24.43,-25.25,-32.23,-41.86,-39.55
2022/07/27 01:52:07+0000,-39.65,-23.52,-24.86,-34.93,-41.96,-39.89
2022/07/27 01:52:59+0000,-39.26,-23.12,-25.22,-32.88,-42.21,-39.11
2022/07/27 01:53:51+0000,-39.22,-24.02,-25.75,-33.50,-42.76,-39.72
2022/07/27 01:54:44+0000,-39.61,-23.79,-25.98,-35.40,-43.29,-40.28
2022/07/27 01:55:36+0000,-40.11,-24.74,-25.51,-34.43,-42.55,-40.80
2022/07/27 01:56:28+0000,-39.92,-22.09,-29.07,-34.34,-41.93,-40.76
2022/07/27 01:57:20+0000,-39.92,-24.73,-26.23,-35.28,-41.90,-39.31
2022/07/27 01:58:12+0000,-39.62,-22.97,-28.61,-33.04,-40.93,-40.47
2022/07/27 01:59:04+0000,-39.90,-22.56,-25.55,-43.28,-41.42,-41.35
2022/07/27 01:59:56+0000,-39.24,-21.66,-28.56,-36.47,-39.80,-41.49
2022/07/27 02:00:48+0000,-38.69,-22.05,-26.51,-44.05,-42.32,-41.35
2022/07/27 02:01:49+0000,-39.48,-22.75,-26.24,-38.77,-42.13,-42.26
2022/07/27 02:02:41+0000,-39.60,-22.59,-27.82,-34.34,-41.95,-41.58
2022/07/27 02:03:33+0000,-40.12,-23.23,-25.67,-42.79,-37.70,-40.31
2022/07/27 02:04:25+0000,-38.94,-22.17,-26.41,-35.91,-43.15,-39.92
2022/07/27 02:05:17+0000,-38.26,-23.11,-26.11,-42.85,-40.88,-40.67
2022/07/27 02:06:09+0000,-40.20,-21.20,-27.01,-33.60,-41.50,-41.32
2022/07/27 02:07:01+0000,-38.84,-22.01,-28.48,-33.67,-37.25,-40.11
2022/07/27 02:07:53+0000,-39.04,-22.36,-23.85,-34.18,-41.76,-41.57
2022/07/27 02:08:46+0000,-39.27,-24.89,-24.31,-34.10,-40.60,-39.83
2022/07/27 02:09:38+0000,-39.77,-24.10,-27.57,-34.50,-41.80,-39.68
2022/07/27 02:10:30+0000,-39.88,-20.99,-27.97,-36.53,-38.23,-41.49
2022/07/27 02:11:31+0000,-38.92,-20.71,-26.66,-31.65,-41.51,-40.80
2022/07/27 02:12:23+0000,-39.90,-22.65,-25.56,-32.07,-40.64,-41.65
2022/07/27 02:13:15+0000,-39.99,-23.70,-26.35,-35.34,-41.10,-41.56
2022/07/27 02:14:07+0000,-39.96,-24.29,-23.91,-33.81,-42.75,-40.12
2022/07/27 02:14:59+0000,-40.01,-21.56,-26.37,-33.03,-41.21,-41.54
2022/07/27 02:15:51+0000,-28.56,-18.78,-15.22,-31.69,-22.63,-40.93
2022/07/27 02:16:43+0000,-28.09,-18.70,-23.74,-35.95,-40.93,-41.09
2022/07/27 02:17:35+0000,-40.10,-23.88,-26.49,-33.98,-41.93,-40.88
2022/07/27 02:18:27+0000,-39.16,-23.76,-30.49,-36.36,-41.25,-41.67
2022/07/27 02:19:19+0000,-38.43,-20.71,-26.56,-34.76,-38.53,-41.55
2022/07/27 02:20:12+0000,-39.91,-21.01,-30.20,-33.03,-41.57,-41.50
2022/07/27 02:21:12+0000,-38.68,-21.10,-30.21,-32.63,-41.64,-41.89
2022/07/27 02:22:04+0000,-39.45,-22.36,-28.51,-40.45,-42.93,-40.75
2022/07/27 02:22:56+0000,-39.18,-22.86,-26.49,-35.85,-42.49,-40.15
2022/07/27 02:23:48+0000,-39.85,-20.62,-27.96,-44.04,-42.20,-40.39
2022/07/27 02:24:40+0000,-39.37,-22.97,-24.87,-36.08,-43.96,-38.49
2022/07/27 02:25:32+0000,-39.71,-20.33,-26.08,-43.21,-40.99,-39.81
2022/07/27 02:26:24+0000,-39.15,-20.97,-27.06,-34.68,-42.84,-40.62
2022/07/27 02:27:16+0000,-40.16,-20.25,-23.35,-33.79,-40.80,-41.21
2022/07/27 02:28:08+0000,-39.46,-20.05,-27.17,-28.42,-43.50,-40.44
2022/07/27 02:29:00+0000,-40.07,-20.11,-27.31,-33.13,-42.26,-40.85
2022/07/27 02:29:53+0000,-39.15,-20.87,-27.80,-29.85,-42.55,-40.47
2022/07/27 02:30:45+0000,-38.87,-20.20,-28.37,-31.92,-43.79,-40.52
2022/07/27 02:31:46+0000,-36.12,-19.73,-28.29,-32.52,-41.89,-40.13
2022/07/27 02:32:38+0000,-37.57,-21.57,-25.53,-33.08,-41.84,-39.85
2022/07/27 02:33:30+0000,-39.63,-21.55,-24.89,-34.41,-41.74,-39.56
2022/07/27 02:34:22+0000,-39.63,-22.79,-27.80,-31.62,-41.63,-38.91
2022/07/27 02:35:14+0000,-38.09,-19.57,-27.53,-34.62,-41.30,-39.65
2022/07/27 02:36:06+0000,-39.33,-23.69,-26.63,-29.01,-42.17,-41.22
2022/07/27 02:36:58+0000,-40.14,-21.18,-29.02,-34.78,-42.34,-40.98
2022/07/27 02:37:50+0000,-40.08,-24.10,-28.60,-35.75,-40.96,-41.13
2022/07/27 02:38:42+0000,-37.71,-20.48,-30.20,-33.02,-38.90,-39.72
2022/07/27 02:39:34+0000,-36.43,-24.39,-28.71,-34.37,-42.72,-40.74
2022/07/27 02:40:27+0000,-38.53,-19.31,-30.84,-33.13,-41.89,-40.05
2022/07/27 02:41:27+0000,-38.10,-19.83,-29.07,-32.66,-43.06,-43.20
2022/07/27 02:42:19+0000,-38.26,-22.17,-27.95,-37.05,-38.70,-41.34
2022/07/27 02:43:11+0000,-37.92,-19.09,-29.60,-33.71,-41.81,-43.30
2022/07/27 02:44:03+0000,-38.82,-19.14,-28.27,-43.99,-40.73,-41.44
2022/07/27 02:44:55+0000,-38.35,-19.41,-27.49,-35.56,-42.78,-45.26
2022/07/27 02:45:47+0000,-36.97,-20.47,-27.48,-41.19,-39.14,-43.29
2022/07/27 02:46:39+0000,-38.76,-20.15,-28.40,-33.11,-43.26,-45.83
2022/07/27 02:47:31+0000,-39.43,-22.06,-26.92,-34.09,-40.53,-43.76
2022/07/27 02:48:23+0000,-37.75,-20.14,-28.12,-31.28,-43.26,-44.19
2022/07/27 02:49:15+0000,-38.74,-21.21,-27.40,-37.60,-42.29,-44.07
2022/07/27 02:50:08+0000,-35.25,-22.70,-27.34,-33.82,-42.10,-44.34
2022/07/27 02:51:08+0000,-38.74,-19.65,-26.73,-34.87,-43.48,-43.09
2022/07/27 02:52:00+0000,-39.13,-21.67,-29.12,-33.58,-39.93,-45.34
2022/07/27 02:52:52+0000,-39.17,-19.99,-25.76,-31.12,-42.28,-43.82
2022/07/27 02:53:44+0000,-36.98,-21.69,-24.51,-34.23,-42.42,-42.94
2022/07/27 02:54:36+0000,-39.53,-23.19,-28.36,-33.69,-40.33,-43.32
2022/07/27 02:55:29+0000,-38.88,-21.89,-26.87,-30.96,-42.04,-43.45
2022/07/27 02:56:21+0000,-39.63,-22.57,-26.77,-33.64,-41.50,-41.71
2022/07/27 02:57:13+0000,-38.95,-20.23,-29.28,-34.77,-42.81,-44.60
2022/07/27 02:58:05+0000,-39.83,-23.42,-25.94,-33.02,-43.18,-42.16
2022/07/27 02:58:57+0000,-39.21,-20.74,-29.46,-31.77,-40.69,-43.01
2022/07/27 02:59:49+0000,-35.17,-21.48,-25.98,-35.60,-42.29,-43.56
2022/07/27 03:00:41+0000,-31.40,-21.12,-28.22,-35.20,-41.83,-44.20
2022/07/27 03:01:42+0000,-37.33,-20.19,-28.39,-34.93,-42.99,-44.25
2022/07/27 03:02:34+0000,-39.21,-20.93,-22.60,-44.17,-41.48,-42.07
2022/07/27 03:03:26+0000,-36.83,-19.95,-26.12,-31.83,-42.64,-42.66
2022/07/27 03:04:18+0000,-39.60,-20.43,-25.11,-44.38,-42.77,-44.07
2022/07/27 03:05:10+0000,-39.44,-19.75,-24.61,-33.02,-42.80,-43.65
2022/07/27 03:06:02+0000,-39.54,-21.15,-26.08,-33.60,-41.62,-43.41
2022/07/27 03:06:54+0000,-39.35,-19.43,-25.05,-35.37,-41.75,-43.96
2022/07/27 03:07:46+0000,-40.08,-19.62,-25.99,-32.43,-41.25,-43.52
2022/07/27 03:08:38+0000,-39.30,-21.07,-24.70,-32.13,-41.74,-43.41
2022/07/27 03:09:30+0000,-39.99,-20.20,-24.15,-31.48,-41.70,-43.82
2022/07/27 03:10:23+0000,-39.79,-18.94,-22.37,-29.55,-42.20,-41.66
2022/07/27 03:11:23+0000,-38.51,-17.88,-24.40,-32.15,-42.84,-42.67
2022/07/27 03:12:15+0000,-39.99,-18.79,-24.17,-29.00,-41.91,-42.05
2022/07/27 03:13:07+0000,-38.01,-18.59,-21.52,-31.93,-42.75,-42.54
2022/07/27 03:14:00+0000,-39.08,-23.74,-20.76,-36.10,-41.84,-44.78
2022/07/27 03:14:52+0000,-39.08,-24.32,-21.93,-33.68,-41.60,-44.31
2022/07/27 03:15:44+0000,-39.30,-17.64,-23.64,-31.99,-41.91,-43.39
2022/07/27 03:16:36+0000,-38.26,-23.73,-24.12,-33.86,-41.68,-43.70
2022/07/27 03:17:28+0000,-38.38,-19.78,-28.33,-35.39,-41.19,-44.08
2022/07/27 03:18:20+0000,-35.75,-23.46,-25.67,-36.47,-39.96,-42.30
2022/07/27 03:19:12+0000,-33.04,-18.87,-27.92,-29.27,-41.30,-43.87
2022/07/27 03:20:04+0000,-38.62,-20.18,-27.47,-32.84,-41.16,-44.44
2022/07/27 03:21:04+0000,-38.86,-22.08,-25.82,-37.27,-41.29,-42.10
2022/07/27 03:21:57+0000,-39.30,-22.70,-26.67,-34.39,-41.60,-42.60
2022/07/27 03:22:49+0000,-37.12,-20.61,-26.70,-43.73,-40.01,-43.86
2022/07/27 03:23:41+0000,-38.15,-20.38,-28.31,-32.09,-42.31,-44.17
2022/07/27 03:24:33+0000,-35.72,-19.63,-26.87,-43.30,-40.23,-42.36
2022/07/27 03:25:25+0000,-39.14,-20.49,-26.60,-27.94,-40.40,-42.36
2022/07/27 03:26:17+0000,-38.58,-18.00,-25.54,-32.44,-40.11,-42.18
2022/07/27 03:27:09+0000,-38.94,-18.33,-25.66,-30.65,-42.02,-44.68
2022/07/27 03:28:01+0000,-36.76,-21.06,-27.17,-33.91,-40.73,-43.93
2022/07/27 03:28:53+0000,-35.87,-21.12,-26.52,-27.84,-40.11,-44.55
2022/07/27 03:29:45+0000,-39.20,-18.39,-24.76,-34.49,-40.22,-41.87
2022/07/27 03:30:38+0000,-36.75,-22.27,-25.82,-31.63,-40.54,-42.89
2022/07/27 03:32:54+0000,-38.52,-22.52,-25.05,-29.16,-43.42,-43.97
2022/07/27 03:33:46+0000,-35.81,-21.46,-24.69,-31.53,-40.00,-41.96
2022/07/27 03:34:38+0000,-38.00,-22.47,-26.01,-32.53,-40.07,-41.73
2022/07/27 03:35:30+0000,-37.65,-21.26,-25.34,-29.07,-38.30,-43.42
2022/07/27 03:36:22+0000,-38.36,-21.74,-25.48,-27.75,-41.43,-41.68
2022/07/27 03:37:14+0000,-38.65,-18.85,-22.58,-29.44,-39.22,-42.34
2022/07/27 03:38:06+0000,-37.96,-25.54,-24.63,-30.03,-39.78,-44.04
2022/07/27 03:38:58+0000,-38.78,-21.21,-26.03,-32.06,-40.22,-44.04
2022/07/27 03:39:50+0000,-37.47,-25.97,-24.31,-32.24,-39.02,-43.30
2022/07/27 03:40:42+0000,-38.36,-22.85,-27.73,-28.71,-39.40,-43.80
2022/07/27 03:41:43+0000,-38.22,-19.47,-28.21,-32.44,-40.54,-41.62
2022/07/27 03:42:35+0000,-37.79,-24.95,-23.94,-30.58,-39.41,-41.62
2022/07/27 03:43:27+0000,-37.05,-21.75,-26.78,-31.16,-41.52,-42.91
2022/07/27 03:44:19+0000,-34.08,-19.09,-27.43,-41.44,-28.44,-42.54
2022/07/27 03:45:11+0000,-35.14,-19.46,-27.86,-33.23,-41.19,-42.65
2022/07/27 03:46:03+0000,-34.08,-21.46,-22.18,-45.58,-36.85,-42.28
2022/07/27 03:46:55+0000,-34.54,-20.82,-26.86,-32.85,-41.57,-44.14
2022/07/27 03:47:47+0000,-29.61,-20.92,-27.06,-41.67,-41.42,-42.33
2022/07/27 03:48:39+0000,-34.01,-20.13,-26.45,-33.29,-41.81,-42.34
2022/07/27 03:49:31+0000,-36.50,-19.95,-25.15,-35.49,-37.97,-42.36
2022/07/27 03:50:24+0000,-32.27,-18.28,-27.05,-35.94,-41.53,-40.91
2022/07/27 03:51:24+0000,-38.41,-20.53,-26.88,-35.07,-41.93,-43.90
2022/07/27 03:52:17+0000,-32.65,-21.52,-26.36,-29.53,-41.00,-43.91
2022/07/27 03:53:09+0000,-37.92,-20.71,-26.09,-26.81,-41.66,-41.98
2022/07/27 03:54:01+0000,-37.68,-20.53,-24.69,-34.86,-40.31,-44.13
2022/07/27 03:54:53+0000,-37.78,-23.29,-24.32,-37.61,-41.39,-41.30
2022/07/27 03:55:45+0000,-39.64,-19.13,-26.68,-31.61,-41.66,-43.67
2022/07/27 03:56:37+0000,-39.22,-22.36,-21.24,-32.47,-40.33,-30.60
2022/07/27 03:57:29+0000,-37.39,-23.22,-22.06,-31.58,-40.77,-42.81
2022/07/27 03:58:21+0000,-35.77,-24.83,-26.57,-33.60,-41.71,-41.97
2022/07/27 03:59:13+0000,-38.99,-18.82,-28.55,-32.76,-41.99,-42.01
2022/07/27 04:00:06+0000,-37.03,-25.72,-22.74,-33.39,-41.49,-42.95
2022/07/27 04:01:06+0000,-36.92,-25.51,-26.59,-32.59,-41.40,-42.01
2022/07/27 04:01:58+0000,-39.63,-20.95,-23.22,-36.45,-41.46,-43.40
2022/07/27 04:02:50+0000,-39.00,-24.88,-24.72,-34.75,-40.83,-41.35
2022/07/27 04:03:43+0000,-36.35,-20.04,-29.48,-35.23,-40.71,-41.78
2022/07/27 04:04:35+0000,-37.32,-24.49,-26.00,-33.64,-41.54,-42.57
2022/07/27 04:05:27+0000,-39.51,-21.65,-28.10,-35.95,-42.00,-43.46
2022/07/27 04:06:19+0000,-38.66,-18.82,-24.41,-43.92,-41.61,-41.96
2022/07/27 04:07:11+0000,-35.95,-18.62,-26.92,-34.16,-41.47,-41.56
2022/07/27 04:08:03+0000,-37.18,-21.29,-23.79,-45.19,-40.92,-42.39
2022/07/27 04:08:55+0000,-37.84,-21.47,-27.09,-37.66,-41.30,-42.24
2022/07/27 04:09:48+0000,-38.74,-18.51,-26.76,-43.94,-41.53,-41.91
2022/07/27 04:10:40+0000,-37.76,-18.04,-25.04,-32.95,-41.46,-40.62
2022/07/27 04:11:40+0000,-36.70,-19.33,-21.89,-34.85,-41.69,-41.32
2022/07/27 04:12:32+0000,-38.36,-18.22,-21.70,-42.34,-40.82,-41.80
2022/07/27 04:13:24+0000,-35.71,-21.20,-25.24,-37.23,-41.19,-42.85
2022/07/27 04:14:16+0000,-39.25,-17.13,-26.43,-32.94,-41.32,-41.95
2022/07/27 04:15:08+0000,-35.54,-20.15,-22.49,-31.90,-41.69,-41.78
2022/07/27 04:16:01+0000,-38.95,-21.03,-20.71,-35.28,-40.06,-41.23
2022/07/27 04:16:53+0000,-39.05,-19.85,-25.79,-35.97,-40.38,-42.29
2022/07/27 04:17:45+0000,-39.51,-19.87,-28.03,-33.91,-41.05,-44.22
2022/07/27 04:18:37+0000,-39.14,-20.73,-23.86,-34.49,-40.91,-41.56
2022/07/27 04:19:29+0000,-39.12,-20.32,-24.69,-34.90,-40.92,-41.46
2022/07/27 04:20:21+0000,-39.21,-26.06,-23.13,-36.39,-41.11,-42.79
2022/07/27 04:21:22+0000,-36.96,-20.98,-22.55,-32.92,-41.27,-43.34
2022/07/27 04:22:14+0000,-39.66,-19.87,-25.40,-36.27,-41.78,-42.11
2022/07/27 04:23:06+0000,-39.74,-24.79,-25.41,-32.36,-41.39,-41.21
2022/07/27 04:23:58+0000,-39.35,-20.96,-26.78,-36.04,-41.00,-43.20
2022/07/27 04:24:50+0000,-37.69,-25.48,-21.08,-36.01,-40.55,-41.22
2022/07/27 04:25:42+0000,-40.00,-18.48,-28.26,-36.08,-40.66,-42.01
2022/07/27 04:26:34+0000,-38.40,-19.65,-27.41,-41.62,-41.09,-43.11
2022/07/27 04:27:26+0000,-38.67,-18.77,-28.79,-36.13,-40.96,-42.86
2022/07/27 04:28:18+0000,-39.41,-18.73,-27.09,-44.76,-40.96,-43.22
2022/07/27 04:29:10+0000,-37.86,-18.57,-21.41,-27.32,-40.94,-43.54
2022/07/27 04:30:03+0000,-37.47,-20.12,-23.53,-44.32,-41.40,-43.87
2022/07/27 04:31:03+0000,-36.12,-17.94,-22.24,-45.11,-40.65,-42.65
2022/07/27 04:31:55+0000,-35.04,-21.55,-27.51,-39.09,-41.09,-41.94
2022/07/27 04:32:47+0000,-36.50,-17.69,-25.90,-44.95,-41.18,-41.50
2022/07/27 04:33:39+0000,-37.54,-17.12,-21.89,-27.18,-40.79,-40.54
2022/07/27 04:34:32+0000,-35.68,-19.29,-22.03,-38.50,-41.08,-43.06
2022/07/27 04:35:24+0000,-39.09,-19.56,-27.35,-38.84,-41.37,-41.51
2022/07/27 04:36:16+0000,-39.13,-17.83,-27.12,-29.35,-40.61,-42.15
2022/07/27 04:37:08+0000,-34.81,-17.38,-22.29,-33.00,-40.62,-42.98
2022/07/27 04:38:00+0000,-39.04,-21.22,-23.78,-36.35,-40.98,-43.15
2022/07/27 04:38:52+0000,-39.34,-21.79,-24.61,-37.27,-40.79,-41.07
2022/07/27 04:39:45+0000,-39.18,-16.32,-26.21,-34.27,-41.58,-41.53
2022/07/27 04:40:37+0000,-33.90,-25.31,-24.87,-34.67,-41.30,-42.32
2022/07/27 04:41:37+0000,-35.86,-18.05,-22.45,-35.66,-41.23,-40.59
2022/07/27 04:42:29+0000,-39.36,-18.57,-21.69,-37.08,-40.80,-42.52
2022/07/27 04:43:21+0000,-38.41,-22.77,-26.60,-38.00,-41.71,-42.26
2022/07/27 04:44:13+0000,-39.03,-19.86,-27.07,-35.37,-40.47,-42.86